Weather Roundup
Issued by NWS Corpus Christi, TX

Home | Current Version | Previous Version | Text Only | Print | Product List | Glossary On
Versions: 1 2 3 4 5 6 7 8 9 10 11 12 13 14 15 16 17 18 19 20 21 22 23 24 25 26 27 28 29 30 31 32 33 34 35 36 37 38 39 40 41 42 43 44 45 46 47 48 49 50
000
ASUS44 KCRP 010610
HRRCRP

SOUTH TEXAS REGIONAL WEATHER ROUNDUP
NATIONAL WEATHER SERVICE CORPUS CHRISTI TX
100 AM CDT SAT AUG 01 2015


TXZ229>244-010700-
...CORPUS CHRISTI AREA OBSERVATIONS...

CITY           SKY/WX    TMP DP  RH WIND       PRES   REMARKS
CORPUS CHRISTI CLOUDY    77  74  90 NW3       29.97S
NAS CORPUS CHR MOCLDY    79  74  84 N6        29.96S
ROCKPORT       PTCLDY    77  74  90 NW5       29.96F
KINGSVILLE NAS MOCLDY    77  76  96 CALM      29.97S
ALICE          MOCLDY    76  73  91 NE3       29.98R
FALFURRIAS     PTCLDY    77  72  84 CALM      29.97S
$$

...VICTORIA AREA OBSERVATIONS...

CITY           SKY/WX    TMP DP  RH WIND       PRES   REMARKS
VICTORIA       PTCLDY    76  74  93 CALM      29.99S
BEEVILLE       FAIR      71  71 100 CALM      29.98F
PLEASANTON     PTCLDY    75  69  81 NW3       30.00F
SAN ANTONIO    PTCLDY    80  72  76 CALM      30.01F
$$

...LAREDO AREA OBSERVATIONS...

CITY           SKY/WX    TMP DP  RH WIND       PRES   REMARKS
LAREDO         MOCLDY    79  74  84 E7        30.00S
COTULLA        MOCLDY    78  73  84 N5        29.99S
DEL RIO        CLOUDY    84  68  58 SE9       30.04R
MCALLEN        MOCLDY    84  73  69 S5        29.98S HX  90
HEBBRONVILLE     N/A     74  72  93 CALM      30.00F
$$

...OTHER TEXAS OBSERVATIONS...

CITY           SKY/WX    TMP DP  RH WIND       PRES   REMARKS
BROWNSVILLE    CLOUDY    79  75  87 S3        29.97S
HOUSTON        PTCLDY    79  66  64 N3        29.98F
COL. STATION   CLEAR     80  62  54 E6        30.00F
AUSTIN         PTCLDY    77  67  71 VRB3      30.00F
WACO           PTCLDY    82  59  45 E3        30.02R
FORT WORTH     MOCLDY    85  57  38 E7        30.03R
WICHITA FALLS  MOCLDY    74  71  91 N3        30.07R
LUBBOCK        CLOUDY    74  67  78 SE12      30.18S
EL PASO        PTCLDY    84  50  30 E8        30.13S
$$

...MARINE OBSERVATIONS...

STATION/POSITION TIME  SKY/WX   TEMP    WIND        PRES    VSBY  WAVE   SWELL
                                AIR SEA DIR/SP/G                  HT/PER HT/PER
                 (UTC)          (F)     (DEG/KT/KT) (MB)    (MI)  (FT/S) (FT/S)
PORT ARANSAS     0600            80 83  340/  5/  6 1015.2F
BUOY 90 E PORT A 0550            84 87  270/  8/ 10 1014.4F         2/ 4
BUOY 45 SE BAFFI 0550            84 86  120/  4/  6 1014.5R         1/ 5   2/ 5
BUOY 200 E PT IS 0550            83 85  270/  6/  8 1014.5F         2/ 5   2/ 5
BUOY 15 E GALVES 0550            86 87  320/  6/  6 1014.0F         1/ 3
$$



USA.gov is the U.S. government's official web portal to all federal, state and local government web resources and services.